Flight Track Log - Related Links

Times and Time Zones

All times are in EDT time to prevent confusion due to time zone crossing. See the FLG3432 flight status page for this flight to view local times or setup timezone preferences in your user account.


Time Position Orientation Groundspeed Altitude Reporting Facility
EDT Latitude Longitude Course Direction KTS MPH feet Rate Location/Type
Mon 04:56:03 PM 40.8000 -73.9000 333° Northwest 167 192 1,500  Level New York TRACON
Mon 04:57:03 PM 40.8500 -73.9333 333° Northwest 218 251 3,300 2,000 Climbing New York TRACON
Mon 04:58:03 PM 40.9167 -73.9833 330° Northwest 269 310 5,500 2,500 Climbing New York TRACON
Mon 04:59:03 PM 40.9667 -74.0333 323° Northwest 269 310 8,300 2,550 Climbing New York TRACON
Mon 05:00:03 PM 40.9500 -74.1333 258° West 260 299 10,600 1,900 Climbing New York TRACON
Mon 05:01:03 PM 40.9333 -74.2333 258° West 310 357 12,100 1,810 Climbing New York TRACON
Mon 05:02:09 PM 40.9000 -74.3500 249° West 332 382 14,400 1,883 Climbing New York TRACON
Mon 05:03:20 PM 40.8389 -74.4767 238° Southwest 362 417 16,400 1,200 Climbing New York Center
Mon 05:04:19 PM 40.8103 -74.5875 251° West 370 426 17,000 305 Climbing New York Center
Mon 05:05:18 PM 40.7722 -74.7361 251° West 384 442 17,000  Level New York Center
Mon 05:06:20 PM 40.7431 -74.8575 252° West 389 448 17,000 550 Level New York Center
Mon 05:07:18 PM 40.7044 -75.0031 251° West 384 442 18,100 1,475 Climbing New York Center
Mon 05:08:18 PM 40.6669 -75.1156 246° West 384 442 19,900 1,785 Climbing New York Center
Mon 05:09:19 PM 40.6147 -75.2353 240° Southwest 379 436 21,700 1,686 Climbing New York Center
Mon 05:10:19 PM 40.5600 -75.3547 239° Southwest 379 436 23,300 1,412 Climbing New York Center
Mon 05:11:18 PM 40.5033 -75.4767 239° Southwest 391 450 24,500 1,059 Climbing New York Center
Mon 05:12:18 PM 40.4461 -75.6008 239° Southwest 396 456 25,400 950 Climbing New York Center
Mon 05:13:18 PM 40.3867 -75.7275 238° Southwest 402 463 26,400 1,091 Climbing New York Center
Mon 05:14:19 PM 40.3200 -75.8725 239° Southwest 417 480 27,600 1,100 Climbing New York Center
Mon 05:15:18 PM 40.2536 -76.0064 237° Southwest 423 487 28,600 1,050 Climbing New York Center
Mon 05:16:19 PM 40.1914 -76.1431 239° Southwest 429 494 29,700 984 Climbing New York Center
Mon 05:17:20 PM 40.1267 -76.2792 238° Southwest 430 495 30,600 950 Climbing New York Center
Mon 05:18:19 PM 40.0639 -76.4153 239° Southwest 435 501 31,600 1,008 Climbing New York Center
Mon 05:19:19 PM 40.0011 -76.5483 238° Southwest 435 501 32,600 992 Climbing New York Center
Mon 05:20:20 PM 39.9381 -76.6839 239° Southwest 435 501 33,600 1,000 Climbing New York Center
Mon 05:21:19 PM 39.8750 -76.8194 239° Southwest 435 501 34,600 964 Climbing New York Center
Mon 05:22:12 PM 39.8272 -76.9233 239° Southwest 428 493 35,400 743 Climbing Washington Center
Mon 05:23:12 PM 39.7631 -77.0544 238° Southwest 428 493 36,000 300 Climbing Washington Center
Mon 05:24:12 PM 39.7011 -77.1881 239° Southwest 428 493 36,000  Level Washington Center
Mon 05:25:13 PM 39.6386 -77.3242 239° Southwest 433 498 36,000  Level Washington Center
Mon 05:26:12 PM 39.5719 -77.4625 238° Southwest 443 510 36,000  Level Washington Center
Mon 05:27:12 PM 39.5072 -77.6008 239° Southwest 448 516 36,000  Level Washington Center
Mon 05:28:13 PM 39.4425 -77.7361 238° Southwest 448 516 36,000  Level Washington Center
Mon 05:29:11 PM 39.3794 -77.8711 239° Southwest 448 516 36,000  Level Washington Center
Mon 05:30:12 PM 39.3247 -78.0089 243° Southwest 436 502 36,000  Level Washington Center
Mon 05:31:12 PM 39.2678 -78.1464 242° Southwest 431 496 36,000  Level Washington Center
Mon 05:32:13 PM 39.2125 -78.2864 243° Southwest 431 496 36,000  Level Washington Center
Mon 05:33:11 PM 39.1572 -78.4264 243° Southwest 431 496 36,000  Level Washington Center
Mon 05:34:12 PM 39.0997 -78.5658 242° Southwest 436 502 36,000  Level Washington Center
Mon 05:35:13 PM 39.0442 -78.7025 242° Southwest 436 502 36,000  Level Washington Center
Mon 05:36:11 PM 38.9883 -78.8417 243° Southwest 436 502 36,000  Level Washington Center
Mon 05:37:12 PM 38.9303 -78.9781 241° Southwest 442 509 36,000  Level Washington Center
Mon 05:38:11 PM 38.8742 -79.1219 243° Southwest 442 509 36,000  Level Washington Center
Mon 05:39:11 PM 38.8281 -79.2664 248° West 447 514 36,000  Level Washington Center
Mon 05:40:12 PM 38.8003 -79.4194 257° West 447 514 36,000  Level Washington Center
Mon 05:41:12 PM 38.7744 -79.5781 258° West 447 514 36,000  Level Washington Center
Mon 05:42:13 PM 38.7483 -79.7311 258° West 447 514 36,000  Level Washington Center
Mon 05:43:11 PM 38.7200 -79.8836 257° West 447 514 36,000  Level Washington Center
Mon 05:43:45 PM 38.6978 -79.9786 253° West 444 511 36,000  Level Indianapolis Center
Mon 05:44:47 PM 38.6700 -80.1331 257° West 444 511 36,000  Level Indianapolis Center
Mon 05:45:49 PM 38.6397 -80.2883 256° West 445 512 36,000  Level Indianapolis Center
Mon 05:46:51 PM 38.6106 -80.4447 257° West 448 516 36,000  Level Indianapolis Center
Mon 05:47:52 PM 38.5803 -80.6019 256° West 449 517 36,000  Level Indianapolis Center
Mon 05:48:54 PM 38.5503 -80.7589 256° West 453 521 36,000  Level Indianapolis Center
Mon 05:49:56 PM 38.5192 -80.9147 256° West 453 521 36,000  Level Indianapolis Center
Mon 05:50:58 PM 38.4825 -81.1033 256° West 453 521 36,000  Level Indianapolis Center
Mon 05:51:59 PM 38.4517 -81.2592 256° West 453 521 36,000  Level Indianapolis Center
Mon 05:53:01 PM 38.4203 -81.4175 256° West 453 521 36,000  Level Indianapolis Center
Mon 05:54:03 PM 38.3894 -81.5747 256° West 452 520 36,000  Level Indianapolis Center
Mon 05:55:05 PM 38.3581 -81.7317 256° West 452 520 36,000  Level Indianapolis Center
Mon 05:56:06 PM 38.3186 -81.8853 252° West 453 521 36,000  Level Indianapolis Center
Mon 05:57:08 PM 38.2761 -82.0367 250° West 453 521 36,000  Level Indianapolis Center
Mon 05:58:10 PM 38.2336 -82.1894 251° West 453 521 36,000  Level Indianapolis Center
Mon 05:59:12 PM 38.1897 -82.3417 250° West 454 522 36,000  Level Indianapolis Center
Mon 06:00:13 PM 38.1389 -82.5211 250° West 455 524 36,000  Level Indianapolis Center
Mon 06:01:15 PM 38.0950 -82.6706 250° West 455 524 36,000  Level Indianapolis Center
Mon 06:02:17 PM 38.0522 -82.8219 250° West 455 524 36,000  Level Indianapolis Center
Mon 06:03:19 PM 38.0078 -82.9731 250° West 455 524 36,000  Level Indianapolis Center
Mon 06:04:21 PM 37.9644 -83.1225 250° West 455 524 36,000 -244 Level Indianapolis Center
Mon 06:05:22 PM 37.9117 -83.2978 249° West 455 524 35,500 -634 Descending Indianapolis Center
Mon 06:06:24 PM 37.8675 -83.4481 250° West 455 524 34,700 -774 Descending Indianapolis Center
Mon 06:07:26 PM 37.8247 -83.5931 250° West 448 516 33,900 -677 Descending Indianapolis Center
Mon 06:08:28 PM 37.7792 -83.7428 249° West 448 516 33,300 -532 Descending Indianapolis Center
Mon 06:09:30 PM 37.7344 -83.8931 249° West 453 521 32,800 -488 Descending Indianapolis Center
Mon 06:10:31 PM 37.6889 -84.0453 249° West 459 528 32,300 -390 Descending Indianapolis Center
Mon 06:11:33 PM 37.6028 -84.2036 236° Southwest 474 545 32,000 -145 Descending Indianapolis Center
Mon 06:12:35 PM 37.4944 -84.3081 217° Southwest 486 559 32,000  Level Indianapolis Center
Mon 06:13:37 PM 37.3900 -84.4108 218° Southwest 483 556 32,000  Level Indianapolis Center
Mon 06:14:39 PM 37.2819 -84.5125 217° Southwest 483 556 32,000 -532 Level Indianapolis Center
Mon 06:15:41 PM 37.1947 -84.6417 230° Southwest 484 557 30,900 -1,122 Descending Indianapolis Center
Mon 06:16:42 PM 37.1042 -84.7978 234° Southwest 482 555 29,700 -1,024 Descending Indianapolis Center
Mon 06:17:44 PM 37.0328 -84.9197 234° Southwest 470 541 28,800 -919 Descending Indianapolis Center
Mon 06:18:46 PM 36.9592 -85.0481 234° Southwest 460 529 27,800 -968 Descending Indianapolis Center
Mon 06:19:48 PM 36.8853 -85.1747 234° Southwest 458 527 26,800 -1,645 Descending Indianapolis Center
Mon 06:20:50 PM 36.7972 -85.3242 234° Southwest 449 517 24,400 -2,274 Descending Indianapolis Center
Mon 06:21:52 PM 36.7328 -85.4403 235° Southwest 421 484 22,100 -1,161 Descending Indianapolis Center
Mon 06:22:54 PM 36.6794 -85.5544 240° Southwest 396 456 22,000 -1,415 Descending Indianapolis Center
Mon 06:23:55 PM 36.6294 -85.6586 239° Southwest 365 420 19,200 -3,220 Descending Indianapolis Center
Mon 06:24:57 PM 36.5750 -85.7725 239° Southwest 374 430 15,400 -3,290 Descending Indianapolis Center
Mon 06:25:59 PM 36.5194 -85.8886 239° Southwest 383 441 12,400 -2,129 Descending Indianapolis Center
Mon 06:27:01 PM 36.4703 -85.9964 240° Southwest 363 418 11,000 -1,258 Descending Indianapolis Center
Mon 06:28:03 PM 36.4319 -86.1067 247° West 303 349 9,800 -1,306 Descending Indianapolis Center
Mon 06:29:05 PM 36.4039 -86.1906 247° West 271 312 8,300 -1,452 Descending Indianapolis Center
Mon 06:30:07 PM 36.3744 -86.2717 246° West 258 297 6,800 -1,317 Descending Indianapolis Center
Mon 06:31:08 PM 36.3458 -86.3517 246° West 254 292 5,600 -1,220 Descending Indianapolis Center
Mon 06:32:10 PM 36.3164 -86.4333 246° West 254 292 4,300 -1,258 Descending Indianapolis Center
Mon 06:33:12 PM 36.2744 -86.5067 235° Southwest 255 293 3,000 -1,113 Descending Indianapolis Center
Mon 06:34:14 PM 36.2350 -86.5739 234° Southwest 245 282 2,000 -435 Descending Indianapolis Center
Mon 06:35:16 PM 36.2028 -86.6286 234° Southwest 202 232 2,100 -364 Climbing Indianapolis Center
Mon 06:35:53 PM 36.1667 -86.6333 186° South 144 166 1,400 -935 Descending Nashville TRACON
Mon 06:36:33 PM 36.1497 -86.6528 223° Southwest 157 181 900 -353 Descending Memphis Center
Mon 06:37:35 PM 36.1147 -86.6675 199° South 154 177 800 -97 Descending Memphis Center
Mon 06:39:00 PM 36.1167 -86.6667 141° Southeast  Level FlightAware Approximate

Login

Don't have an account? Register now (free) for customized features, flight alerts, and more!